This is the latest recevied weather packets stored in our database for station/object BM6HML-1. If no packets are shown the sender has not sent any weather packets the latest 10 day(s).
| Time | Temp. | Humidity | Pressure | Rain* | Wind** | Luminosity | Snow |
|---|---|---|---|---|---|---|---|
| 1777379660 | 32.22° C | 59% | 1010.2 hPa | - | - | - | - |
| 1777378460 | 32.22° C | 59% | 1010 hPa | - | - | - | - |
| 1777377260 | 32.22° C | 58% | 1009.7 hPa | - | - | - | - |
| 1777376060 | 32.22° C | 58% | 1009.6 hPa | - | - | - | - |
| 1777374860 | 32.22° C | 58% | 1009.4 hPa | - | - | - | - |
| 1777373660 | 32.22° C | 58% | 1009.1 hPa | - | - | - | - |
| 1777372460 | 32.22° C | 58% | 1008.8 hPa | - | - | - | - |
| 1777371260 | 32.22° C | 58% | 1008.6 hPa | - | - | - | - |
| 1777370060 | 32.22° C | 58% | 1008.3 hPa | - | - | - | - |
| 1777368860 | 32.22° C | 58% | 1008.1 hPa | - | - | - | - |
| 1777367660 | 32.22° C | 59% | 1008 hPa | - | - | - | - |
| 1777366460 | 32.22° C | 59% | 1007.8 hPa | - | - | - | - |
| 1777365260 | 32.22° C | 60% | 1008 hPa | - | - | - | - |
| 1777364060 | 32.22° C | 60% | 1007.9 hPa | - | - | - | - |
| 1777362860 | 31.67° C | 60% | 1008 hPa | - | - | - | - |
| 1777361660 | 32.22° C | 60% | 1007.9 hPa | - | - | - | - |
| 1777360460 | 31.67° C | 61% | 1008.3 hPa | - | - | - | - |
| 1777359260 | 31.67° C | 61% | 1008.3 hPa | - | - | - | - |
| 1777358060 | 31.67° C | 62% | 1008.7 hPa | - | - | - | - |
| 1777356859 | 31.11° C | 63% | 1009 hPa | - | - | - | - |
| 1777355660 | 31.11° C | 64% | 1009.1 hPa | - | - | - | - |
| 1777354460 | 30.56° C | 66% | 1009.3 hPa | - | - | - | - |
| 1777353260 | 30.56° C | 65% | 1009.6 hPa | - | - | - | - |
| 1777352060 | 30.56° C | 64% | 1009.6 hPa | - | - | - | - |
| 1777350860 | 31.11° C | 61% | 1009.9 hPa | - | - | - | - |
* Rain since midnight (hover to see other rain measurements)
** Current wind speed in m/s (hover to see current wind gust speed)